REAKTOR HELLO WORLD (43743 NORAD) Tracking and Keplerian Element Data

This shows tracking and keplerian element data for the satellite.

Feedback or suggestion? Click here.




ElementValue
Catalog43743
NameREAKTOR HELLO WORLD
Epoch Orbit26522
Epoch Day238.89270311
Epoch Year2023
RAAN328.4732
Inclination97.311
Eccentricity0.0008186
Argument of Perigee260.9897
Mean Anonmoly99.0439
Mean Motion15.7099172
Decay Rate0.00126106
L11 43743U 18096AA 23238.89270311 .00126106 00000+0 99471-3 0 9992
L22 43743 97.3110 328.4732 0008186 260.9897 99.0439 15.70991720265229



Live tracking and technical data element details for REAKTOR HELLO WORLD (NORAD 43743). REAKTOR HELLO WORLD can be tracked NOW for your location showing map with azimuth and elevation plus other details from your city location.







IsCatalogInMostPopularTable: catalog: 43743, numindb: 627
Update: records affected: 1



GetName: 43743 REAKTOR HELLO WORLD

Hit Count: updated at: Sat, 07 Mar 2026 02:10:01 GMT